Big Rapids, MI

11:46 AM EDT on July 23, 2017 (GMT -0400)
Roben-Hood

Weather History for KRQB - May, 2014

Change the Weather History Date:

Sunday, May 4, 2014

  Actual Average Record
Temperature  
Mean Temperature 44 °F -  
Max Temperature 52 °F 63 °F 85 °F (1980)
Min Temperature 36 °F 36 °F 19 °F (2005)
Degree Days  
Heating Degree Days 21    
Moisture  
Dew Point 33 °F    
Average Humidity 70    
Maximum Humidity 100    
Minimum Humidity 43    
Precipitation  
Precipitation 0.00 in - - ()
Sea Level Pressure  
Sea Level Pressure 29.94 in    
Wind  
Wind Speed 5 mph (NNW)    
Max Wind Speed 21 mph    
Max Gust Speed 26 mph    
Visibility 10 miles    
Events      
Averages and records for this station are not official NWS values.
T = Trace of Precipitation, MM = Missing Value Source: NWS Daily Summary

Daily Weather History Graph

Daily Weather History Graph

Search for Another Location

Airport or City:

Trip Planner

Search our weather history database for the weather conditions in past years. The results will help you decide how hot, cold, wet, or windy it might be!

Date:

Astronomy

May. 04, 2014 Rise Set
Actual Time 6:30 AM EDT 8:48 PM EDT
Civil Twilight 5:58 AM EDT 9:20 PM EDT
Nautical Twilight 5:18 AM EDT 9:59 PM EDT
Astronomical Twilight 4:35 AM EDT 10:43 PM EDT
Moon 10:52 AM EDT (5/4) 12:53 AM EDT (5/4)
Length of Visible Light 15h 21m
Length of Day
14h 18m
Waxing Crescent, 27% of the Moon is Illuminated
May 4
Waxing Crescent
May 6
First Quarter
May 14
Full
May 21
Last Quarter
May 28
New

Hourly Weather History & Observations

Time (EDT) Temp. Windchill Dew Point Humidity Pressure Visibility Wind Dir Wind Speed Gust Speed Precip Events Conditions
12:14 AM 38.3 °F - 38.3 °F 100% 29.82 in 10.0 mi Calm Calm - N/A   Clear
12:34 AM 37.4 °F - 37.4 °F 100% 29.82 in 10.0 mi Calm Calm - N/A   Clear
12:55 AM 36.7 °F - 36.7 °F 100% 29.82 in 10.0 mi Calm Calm - N/A   Scattered Clouds
1:14 AM 37.8 °F 35.3 °F 37.8 °F 100% 29.82 in 10.0 mi West 3.5 mph - N/A   Mostly Cloudy
1:34 AM 38.5 °F - 38.5 °F 100% 29.82 in 10.0 mi Calm Calm - N/A   Overcast
1:55 AM 38.1 °F - 38.1 °F 100% 29.82 in 10.0 mi Calm Calm - N/A   Overcast
2:14 AM 38.5 °F 36.1 °F 38.5 °F 100% 29.82 in 10.0 mi West 3.5 mph - N/A   Overcast
2:35 AM 39.0 °F - 39.0 °F 100% 29.82 in 10.0 mi Calm Calm - N/A   Overcast
2:55 AM 38.5 °F - 38.5 °F 100% 29.82 in 10.0 mi Calm Calm - N/A   Overcast
3:14 AM 38.3 °F - 38.3 °F 100% 29.82 in 10.0 mi Calm Calm - N/A   Overcast
3:35 AM 38.3 °F - 38.3 °F 100% 29.82 in 10.0 mi Calm Calm - N/A   Overcast
3:54 AM 38.5 °F - 38.5 °F 100% 29.81 in 10.0 mi Calm Calm - N/A   Overcast
4:14 AM 38.3 °F - 38.3 °F 100% 29.80 in 10.0 mi Calm Calm - N/A   Overcast
4:35 AM 38.5 °F - 38.5 °F 100% 29.80 in 10.0 mi Calm Calm - N/A   Mostly Cloudy
4:54 AM 37.8 °F - 37.8 °F 100% 29.81 in 10.0 mi Calm Calm - N/A   Mostly Cloudy
5:14 AM 37.6 °F - 37.6 °F 100% 29.81 in 10.0 mi Calm Calm - N/A   Mostly Cloudy
5:35 AM 36.5 °F - 36.5 °F 100% 29.80 in 10.0 mi Calm Calm - N/A   Overcast
5:54 AM 37.6 °F - 37.6 °F 100% 29.81 in 10.0 mi Calm Calm - N/A   Mostly Cloudy
6:14 AM 36.5 °F - 36.5 °F 100% 29.81 in 10.0 mi Calm Calm - N/A   Overcast
6:35 AM 37.2 °F - 37.2 °F 100% 29.82 in 10.0 mi Calm Calm - N/A   Overcast
6:54 AM 36.0 °F 33.3 °F 36.0 °F 100% 29.83 in 7.0 mi NW 3.5 mph - N/A   Overcast
7:14 AM 41.4 °F 35.7 °F 39.2 °F 92% 29.84 in 10.0 mi WNW 9.2 mph - N/A   Overcast
7:35 AM 41.2 °F 39.2 °F 40.1 °F 96% 29.84 in 10.0 mi NW 3.5 mph - N/A   Overcast
7:54 AM 41.7 °F 38.8 °F 40.5 °F 95% 29.85 in 10.0 mi NW 4.6 mph - N/A   Mostly Cloudy
8:14 AM 41.9 °F 35.9 °F 39.9 °F 93% 29.87 in 10.0 mi WNW 10.4 mph 17.3 mph N/A   Mostly Cloudy
8:35 AM 41.0 °F 34.3 °F 39.9 °F 96% 29.89 in 10.0 mi NW 11.5 mph 20.7 mph N/A   Overcast
8:54 AM 41.2 °F 34.5 °F 38.7 °F 91% 29.90 in 10.0 mi NNW 11.5 mph 21.9 mph N/A   Overcast
9:15 AM 42.6 °F 35.9 °F 33.3 °F 69% 29.91 in 10.0 mi NNW 12.7 mph 23.0 mph N/A   Overcast
9:34 AM 41.9 °F 32.8 °F 31.3 °F 66% 29.91 in 10.0 mi NNW 20.7 mph 25.3 mph N/A   Mostly Cloudy
9:55 AM 42.6 °F 36.3 °F 31.5 °F 65% 29.92 in 10.0 mi NW 11.5 mph 20.7 mph N/A   Mostly Cloudy
10:15 AM 44.1 °F 38.1 °F 31.6 °F 62% 29.93 in 10.0 mi NNW 11.5 mph 24.2 mph N/A   Overcast
10:34 AM 44.1 °F 36.5 °F 31.1 °F 60% 29.93 in 10.0 mi NW 17.3 mph 23.0 mph N/A   Overcast
10:55 AM 45.0 °F 37.6 °F 29.5 °F 55% 29.94 in 10.0 mi NNW 17.3 mph 24.2 mph N/A   Mostly Cloudy
11:14 AM 43.9 °F 37.2 °F 28.6 °F 55% 29.95 in 10.0 mi North 13.8 mph 21.9 mph N/A   Mostly Cloudy
11:34 AM 45.9 °F 39.4 °F 28.6 °F 51% 29.96 in 10.0 mi NW 15.0 mph 21.9 mph N/A   Mostly Cloudy
11:55 AM 45.9 °F 41.7 °F 28.9 °F 52% 29.97 in 10.0 mi NNW 8.1 mph 23.0 mph N/A   Mostly Cloudy
12:14 PM 46.0 °F 39.6 °F 27.9 °F 49% 29.98 in 10.0 mi NW 15.0 mph 21.9 mph N/A   Mostly Cloudy
12:34 PM 47.5 °F - 29.1 °F 49% 29.99 in 10.0 mi NW 9.2 mph 26.5 mph N/A   Mostly Cloudy
12:55 PM 46.0 °F 41.9 °F 28.0 °F 50% 29.99 in 10.0 mi NW 8.1 mph 20.7 mph N/A   Overcast
1:14 PM 47.5 °F - 29.5 °F 50% 29.99 in 10.0 mi NNW 12.7 mph 17.3 mph N/A   Overcast
1:34 PM 47.5 °F - 29.5 °F 50% 29.99 in 10.0 mi NNW 13.8 mph 24.2 mph N/A   Mostly Cloudy
1:55 PM 48.4 °F - 28.0 °F 45% 29.99 in 10.0 mi NNW 12.7 mph 18.4 mph N/A   Mostly Cloudy
2:14 PM 49.5 °F - 28.8 °F 45% 30.00 in 10.0 mi NW 12.7 mph 16.1 mph N/A   Mostly Cloudy
2:34 PM 50.0 °F - 28.6 °F 44% 30.00 in 10.0 mi NW 12.7 mph 20.7 mph N/A   Mostly Cloudy
2:55 PM 50.2 °F - 29.3 °F 45% 30.00 in 10.0 mi NNW 9.2 mph 19.6 mph N/A   Scattered Clouds
3:14 PM 50.0 °F - 29.3 °F 45% 30.01 in 10.0 mi NNW 18.4 mph 26.5 mph N/A   Scattered Clouds
3:35 PM 50.9 °F - 30.4 °F 45% 30.01 in 10.0 mi NNW 10.4 mph 21.9 mph N/A   Scattered Clouds
3:54 PM 50.5 °F - 29.1 °F 44% 30.00 in 10.0 mi NW 12.7 mph 24.2 mph N/A   Clear
4:14 PM 51.4 °F - 30.2 °F 44% 30.00 in 10.0 mi NNW 13.8 mph 17.3 mph N/A   Clear
4:35 PM 51.8 °F - 29.7 °F 43% 30.01 in 10.0 mi NW 10.4 mph 17.3 mph N/A   Scattered Clouds
4:54 PM 52.2 °F - 30.7 °F 44% 30.01 in 10.0 mi NNW 8.1 mph 17.3 mph N/A   Scattered Clouds
5:14 PM 51.6 °F - 31.3 °F 46% 30.01 in 10.0 mi North 10.4 mph 18.4 mph N/A   Scattered Clouds
5:35 PM 51.4 °F - 31.8 °F 47% 30.01 in 10.0 mi North 9.2 mph 18.4 mph N/A   Scattered Clouds
5:54 PM 51.4 °F - 30.9 °F 45% 30.02 in 10.0 mi NNW 10.4 mph 18.4 mph N/A   Scattered Clouds
6:14 PM 51.6 °F - 30.9 °F 45% 30.02 in 10.0 mi NNW 13.8 mph 17.3 mph N/A   Clear
6:35 PM 51.1 °F - 30.6 °F 45% 30.03 in 10.0 mi NNW 10.4 mph - N/A   Clear
6:54 PM 50.7 °F - 30.4 °F 46% 30.02 in 10.0 mi NNW 9.2 mph 16.1 mph N/A   Clear
7:14 PM 50.5 °F - 30.6 °F 46% 30.03 in 10.0 mi NNW 10.4 mph 16.1 mph N/A   Clear
7:35 PM 50.5 °F - 30.0 °F 45% 30.03 in 10.0 mi NNW 8.1 mph - N/A   Scattered Clouds
7:54 PM 50.0 °F - 30.6 °F 47% 30.04 in 10.0 mi NNW 8.1 mph - N/A   Clear
8:15 PM 48.4 °F - 32.0 °F 53% 30.04 in 10.0 mi North 5.8 mph - N/A   Clear
8:35 PM 47.1 °F - 32.0 °F 56% 30.05 in 10.0 mi North 5.8 mph - N/A   Clear
8:54 PM 46.6 °F - 31.6 °F 56% 30.05 in 10.0 mi North 5.8 mph - N/A   Clear
9:15 PM 46.2 °F 44.1 °F 31.1 °F 56% 30.06 in 10.0 mi NNW 4.6 mph - N/A   Clear
9:34 PM 45.7 °F 44.4 °F 31.1 °F 57% 30.07 in 10.0 mi NW 3.5 mph - N/A   Clear
9:54 PM 45.0 °F 43.5 °F 31.1 °F 58% 30.07 in 10.0 mi NNW 3.5 mph - N/A   Clear
10:15 PM 43.9 °F - 31.1 °F 61% 30.08 in 10.0 mi Calm Calm - N/A   Clear
10:35 PM 41.9 °F 38.2 °F 31.5 °F 66% 30.09 in 10.0 mi North 5.8 mph - N/A   Clear
10:54 PM 41.9 °F 40.0 °F 32.0 °F 68% 30.09 in 10.0 mi North 3.5 mph - N/A   Clear
11:15 PM 41.2 °F - 32.7 °F 72% 30.09 in 10.0 mi Calm Calm - N/A   Clear
11:34 PM 41.9 °F - 32.7 °F 70% 30.09 in 10.0 mi Calm Calm - N/A   Clear
11:54 PM 40.1 °F - 33.4 °F 77% 30.09 in 10.0 mi Calm Calm - N/A   Clear